QPF
0.00 0.00 0.00 0.00 0.00 0.00 0.00 0.00 0.00 0.00 0.00 0.00 0.00 0.00 0.00 0.00 0.00 0.00 0.00 0.00 0.00 0.00 0.00 0.00 0.00 0.00 0.00 0.00 0.00 0.00 0.00 0.00 0.00 0.00 0.00 0.00 0.00 0.00 0.00 0.00 0.00 0.00 0.00 0.00 0.00 0.00 0.00
0.00 0.00 0.00 0.00 0.00 0.00 0.00 0.00 0.00 0.00 0.00 0.00 0.00 0.00 0.00 0.00 0.00 0.00 0.00 0.00 0.00 0.00 0.00 0.00 0.00 0.00 0.00 0.00 0.00 0.00 0.00 0.00 0.00 0.00 0.00 0.00 0.00 0.00 0.00 0.00 0.00 0.00 0.00 0.00 0.00 0.00 0.00
0.00 0.00 0.00 0.00 0.00 0.00 0.00 0.00 0.00 0.00 0.00 0.00 0.00 0.00 0.00 0.00 0.00 0.00 0.00 0.00 0.00 0.00 0.00 0.00 0.00 0.00 0.00 0.00 0.00 0.00 0.00 0.00 0.00 0.00 0.00 0.00 0.00 0.00 0.00 0.00 0.00 0.00 0.00 0.00 0.00 0.00 0.00
0.00 0.00 0.00 0.00 0.00 0.00 0.00 0.00 0.00 0.00 0.00 0.00 0.00 0.00 0.00 0.00 0.00 0.00 0.00 0.00 0.00 0.00 0.00 0.00 0.00 0.00 0.00 0.00 0.00 0.00 0.00 0.00 0.00 0.00 0.00 0.00 0.00 0.00 0.00 0.00 0.00 0.00 0.00 0.00 0.00 0.00 0.00
0.00 0.00 0.00 0.00 0.00 0.00 0.00 0.00 0.00 0.00 0.00 0.00 0.00 0.00 0.00 0.00 0.00 0.00 0.00 0.00 0.00 0.00 0.00 0.00 0.00 0.00 0.00 0.00 0.00 0.00 0.00 0.00 0.00 0.00 0.00 0.00 0.00 0.00 0.00 0.00 0.00 0.00 0.00 0.00 0.00 0.00 0.00
0.00 0.00 0.00 0.00 0.00 0.00 0.00 0.00 0.00 0.00 0.00 0.00 0.00 0.00 0.00 0.00 0.00 0.00 0.00 0.00 0.00 0.00 0.00 0.00 0.00 0.00 0.00 0.00 0.00 0.00 0.00 0.00 0.00 0.00 0.00 0.00 0.00 0.00 0.00 0.00 0.00 0.00 0.00 0.00 0.00 0.00 0.00
0.00 0.00 0.00 0.00 0.00 0.00 0.00 0.00 0.00 0.00 0.00 0.00 0.00 0.00 0.00 0.00 0.00 0.00 0.00 0.00 0.00 0.00 0.00 0.00 0.00 0.00 0.00 0.00 0.00 0.00 0.00 0.00 0.00 0.00 0.00 0.00 0.00 0.00 0.00 0.00 0.00 0.00 0.00 0.00 0.00 0.00 0.00
0.00 0.00 0.00 0.00 0.00 0.00 0.00 0.00 0.00 0.00 0.00 0.00 0.00 0.00 0.00 0.00 0.00 0.00 0.00 0.00 0.00 0.00 0.00 0.00 0.00 0.00 0.00 0.00 0.00 0.00 0.00 0.00 0.00 0.00 0.00 0.00 0.00 0.00 0.00 0.00 0.00 0.00 0.00 0.00 0.00 0.00 0.00
0.00 0.00 0.00 0.00 0.00 0.00 0.00 0.00 0.00 0.00 0.00 0.00 0.00 0.00 0.00 0.00 0.00 0.00 0.00 0.00 0.00 0.00 0.00 0.00 0.00 0.00 0.00 0.00 0.00 0.00 0.00 0.00 0.00 0.00 0.00 0.00 0.00 0.00 0.00 0.00 0.00 0.00 0.00 0.00 0.00 0.00 0.00
0.00 0.00 0.00 0.00 0.00 0.00 0.00 0.00 0.00 0.00 0.00 0.00 0.00 0.00 0.00 0.00 0.00 0.00 0.00 0.00 0.00 0.00 0.00 0.00 0.00 0.00 0.00 0.00 0.00 0.00 0.00 0.00 0.00 0.00 0.00 0.00 0.00 0.00 0.00 0.00 0.00 0.00 0.00 0.00 0.00 0.00 0.00
0.00 0.00 0.00 0.00 0.00 0.00 0.00 0.00 0.00 0.00 0.00 0.00 0.00 0.00 0.00 0.00 0.00 0.00 0.00 0.00 0.00 0.00 0.00 0.00 0.00 0.00 0.00 0.00 0.00 0.00 0.00 0.00 0.00 0.00 0.00 0.00 0.00 0.00 0.00 0.00 0.00 0.00 0.00 0.00 0.00 0.00 0.00
0.00 0.00 0.00 0.00 0.00 0.00 0.00 0.00 0.00 0.00 0.00 0.00 0.00 0.00 0.00 0.00 0.00 0.00 0.00 0.00 0.00 0.00 0.00 0.00 0.00 0.00 0.00 0.00 0.00 0.00 0.00 0.00 0.00 0.00 0.00 0.00 0.00 0.00 0.00 0.00 0.00 0.00 0.00 0.00 0.00 0.00 0.00
0.00 0.00 0.00 0.00 0.00 0.00 0.00 0.00 0.00 0.00 0.00 0.00 0.00 0.00 0.00 0.00 0.00 0.00 0.00 0.00 0.00 0.00 0.00 0.00 0.00 0.00 0.00 0.00 0.00 0.00 0.00 0.00 0.00 0.00 0.00 0.00 0.00 0.00 0.00 0.00 0.00 0.00 0.00 0.00 0.00 0.00 0.00
0.00 0.00 0.00 0.00 0.00 0.00 0.00 0.00 0.00 0.00 0.00 0.00 0.00 0.00 0.00 0.00 0.00 0.00 0.00 0.00 0.00 0.00 0.00 0.00 0.00 0.00 0.00 0.00 0.00 0.00 0.00 0.00 0.00 0.00 0.00 0.00 0.00 0.00 0.00 0.00 0.00 0.00 0.00 0.01 0.00 0.00 0.00
0.00 0.00 0.00 0.00 0.00 0.00 0.00 0.00 0.00 0.00 0.00 0.00 0.00 0.00 0.00 0.00 0.00 0.00 0.00 0.00 0.00 0.00 0.00 0.00 0.00 0.00 0.00 0.00 0.00 0.00 0.00 0.00 0.00 0.00 0.00 0.00 0.00 0.00 0.00 0.00 0.00 0.00 0.00 0.00 0.00 0.00 0.00
0.00 0.00 0.00 0.00 0.00 0.00 0.00 0.00 0.00 0.00 0.00 0.00 0.00 0.00 0.00 0.00 0.00 0.00 0.00 0.00 0.00 0.00 0.00 0.00 0.00 0.00 0.00 0.00 0.00 0.00 0.00 0.00 0.00 0.00 0.00 0.00 0.00 0.00 0.00 0.00 0.01 0.02 0.00 0.00 0.00 0.00 0.00
0.00 0.00 0.00 0.00 0.00 0.00 0.00 0.00 0.00 0.00 0.00 0.00 0.00 0.00 0.00 0.00 0.00 0.00 0.00 0.00 0.00 0.00 0.00 0.00 0.00 0.00 0.00 0.00 0.00 0.00 0.00 0.00 0.00 0.00 0.00 0.00 0.00 0.00 0.00 0.00 0.00 0.00 0.00 0.00 0.00 0.00 0.00
0.00 0.00 0.00 0.00 0.00 0.00 0.00 0.00 0.00 0.00 0.00 0.00 0.00 0.00 0.00 0.00 0.00 0.00 0.00 0.00 0.00 0.00 0.00 0.00 0.00 0.00 0.00 0.00 0.00 0.00 0.00 0.00 0.00 0.00 0.00 0.01 0.00 0.00 0.00 0.00 0.00 0.00 0.00 0.00 0.00 0.00 0.00
0.00 0.00 0.00 0.00 0.00 0.00 0.00 0.00 0.00 0.00 0.00 0.00 0.00 0.00 0.00 0.00 0.00 0.00 0.00 0.00 0.00 0.00 0.00 0.00 0.00 0.00 0.00 0.00 0.00 0.00 0.00 0.00 0.00 0.00 0.00 0.01 0.01 0.00 0.00 0.00 0.00 0.00 0.00 0.00 0.00 0.00 0.00
0.00 0.00 0.00 0.00 0.00 0.00 0.00 0.00 0.00 0.00 0.00 0.00 0.00 0.00 0.00 0.00 0.00 0.00 0.00 0.00 0.00 0.00 0.00 0.00 0.00 0.00 0.00 0.00 0.00 0.00 0.00 0.00 0.00 0.00 0.00 0.01 0.02 0.00 0.00 0.00 0.00 0.00 0.00 0.00 0.00 0.00 0.00
0.00 0.00 0.00 0.00 0.00 0.00 0.00 0.00 0.00 0.00 0.00 0.00 0.00 0.00 0.00 0.00 0.00 0.00 0.00 0.00 0.00 0.00 0.00 0.00 0.00 0.00 0.00 0.00 0.00 0.00 0.00 0.00 0.00 0.00 0.00 0.00 0.01 0.00 0.00 0.00 0.00 0.00 0.00 0.00 0.00 0.00 0.00
0.00 0.00 0.00 0.00 0.00 0.00 0.00 0.00 0.00 0.00 0.00 0.00 0.00 0.00 0.00 0.00 0.00 0.00 0.00 0.00 0.00 0.00 0.00 0.00 0.00 0.00 0.00 0.00 0.00 0.00 0.00 0.00 0.00 0.00 0.00 0.00 0.00 0.00 0.00 0.00 0.00 0.00 0.00 0.00 0.00 0.00 0.00
0.00 0.00 0.00 0.00 0.00 0.00 0.00 0.00 0.00 0.00 0.00 0.00 0.00 0.00 0.00 0.00 0.00 0.00 0.00 0.00 0.00 0.00 0.00 0.00 0.00 0.00 0.00 0.00 0.00 0.00 0.00 0.00 0.00 0.00 0.00 0.00 0.00 0.00 0.00 0.00 0.00 0.00 0.00 0.00 0.00 0.00 0.00
0.00 0.00 0.00 0.00 0.00 0.00 0.00 0.00 0.00 0.00 0.00 0.00 0.00 0.00 0.00 0.00 0.00 0.00 0.00 0.00 0.00 0.00 0.00 0.00 0.00 0.00 0.00 0.00 0.00 0.00 0.00 0.00 0.00 0.00 0.00 0.00 0.00 0.00 0.00 0.00 0.00 0.00 0.00 0.00 0.00 0.00 0.00
0.00 0.00 0.00 0.00 0.00 0.00 0.00 0.00 0.00 0.00 0.00 0.00 0.00 0.00 0.00 0.00 0.00 0.00 0.00 0.00 0.00 0.00 0.00 0.00 0.00 0.00 0.00 0.00 0.00 0.00 0.00 0.00 0.00 0.00 0.00 0.00 0.00 0.00 0.00 0.00 0.00 0.00 0.00 0.00 0.00 0.00 0.00
0.00 0.00 0.00 0.00 0.00 0.00 0.00 0.00 0.00 0.00 0.00 0.00 0.00 0.00 0.00 0.00 0.00 0.00 0.00 0.00 0.00 0.00 0.00 0.00 0.00 0.00 0.00 0.00 0.00 0.00 0.00 0.00 0.00 0.01 0.00 0.00 0.00 0.00 0.00 0.00 0.00 0.00 0.00 0.00 0.00 0.00 0.00
0.00 0.00 0.00 0.00 0.00 0.00 0.00 0.00 0.00 0.00 0.00 0.00 0.00 0.00 0.00 0.00 0.00 0.00 0.00 0.00 0.00 0.00 0.00 0.00 0.00 0.00 0.00 0.00 0.00 0.00 0.00 0.00 0.00 0.00 0.01 0.00 0.00 0.00 0.00 0.00 0.00 0.00 0.00 0.00 0.00 0.00 0.00
0.00 0.00 0.00 0.00 0.00 0.00 0.00 0.00 0.00 0.00 0.00 0.00 0.00 0.00 0.00 0.00 0.00 0.00 0.00 0.00 0.00 0.00 0.00 0.00 0.00 0.00 0.00 0.00 0.00 0.00 0.00 0.00 0.00 0.00 0.00 0.00 0.00 0.00 0.00 0.00 0.00 0.00 0.00 0.00 0.00 0.00 0.00
0.00 0.00 0.00 0.00 0.00 0.00 0.00 0.00 0.00 0.00 0.00 0.00 0.00 0.00 0.00 0.00 0.00 0.00 0.00 0.00 0.00 0.00 0.00 0.00 0.00 0.00 0.00 0.01 0.00 0.00 0.00 0.00 0.00 0.00 0.00 0.00 0.00 0.00 0.00 0.00 0.00 0.00 0.00 0.00 0.00 0.00 0.00
MSLP
1025.65 1025.47 1025.49 1025.31 1025.09 1024.68 1024.30 1024.07 1023.89 1023.44 1023.24 1022.75 1022.11 1021.51 1020.81 1020.18 1019.43 1018.82 1018.10 1017.29 1016.38 1015.65 1015.21 1014.94 1014.62 1014.05 1013.41 1013.17 1012.74 1011.90 1011.32 1010.71 1010.22 1009.87 1009.94 1009.83 1009.90 1010.22 1010.77 1011.35 1011.83 1012.23 1013.18 1013.76 1014.29 1014.56 1014.94
1025.89 1025.67 1025.76 1025.54 1025.36 1024.94 1024.63 1024.35 1024.06 1023.62 1023.29 1022.94 1022.22 1021.66 1020.95 1020.16 1019.17 1018.33 1017.48 1016.51 1015.65 1014.96 1014.67 1014.61 1014.50 1014.24 1013.75 1013.35 1012.62 1012.15 1011.58 1010.85 1010.72 1010.31 1010.29 1010.15 1010.34 1010.54 1011.17 1011.93 1012.39 1013.26 1013.56 1014.13 1014.61 1014.87 1015.18
1026.09 1025.85 1025.93 1025.77 1025.57 1025.21 1024.84 1024.60 1024.15 1023.74 1023.28 1022.97 1022.32 1021.61 1020.66 1019.74 1018.87 1018.00 1017.15 1016.38 1015.49 1014.91 1014.61 1014.54 1014.40 1014.28 1013.79 1013.27 1012.62 1012.24 1011.66 1011.15 1010.93 1010.59 1010.43 1010.50 1010.47 1010.83 1011.74 1012.47 1013.25 1013.42 1013.70 1014.11 1014.45 1014.74 1015.10
1026.26 1026.16 1026.13 1025.89 1025.65 1025.28 1024.89 1024.67 1024.27 1023.81 1023.34 1022.88 1022.18 1021.40 1020.62 1019.71 1018.82 1017.71 1016.80 1016.10 1015.35 1015.04 1014.74 1014.63 1014.58 1014.30 1013.50 1012.75 1012.57 1012.55 1011.79 1011.11 1010.70 1010.57 1010.59 1010.69 1010.68 1011.35 1012.14 1012.98 1013.31 1013.41 1013.75 1013.90 1014.29 1014.68 1015.32
1026.52 1026.44 1026.23 1026.00 1025.61 1025.30 1025.03 1024.73 1024.39 1023.91 1023.38 1022.93 1022.29 1021.47 1020.76 1019.70 1018.86 1017.50 1016.54 1015.66 1015.29 1014.96 1014.83 1014.70 1014.65 1014.31 1013.75 1012.71 1013.00 1012.87 1012.82 1012.03 1011.10 1010.65 1010.76 1010.81 1011.02 1012.27 1012.81 1012.98 1013.46 1013.82 1013.61 1014.00 1014.07 1014.58 1014.99
1026.62 1026.53 1026.33 1026.08 1025.67 1025.44 1025.17 1024.88 1024.61 1024.04 1023.49 1022.96 1022.27 1021.50 1020.74 1019.74 1018.92 1017.47 1015.92 1015.52 1015.28 1014.87 1014.96 1014.66 1014.88 1015.05 1014.55 1014.79 1014.35 1013.46 1012.67 1012.18 1011.46 1010.98 1011.07 1011.40 1012.15 1012.69 1013.11 1013.06 1012.96 1013.35 1013.68 1013.98 1014.20 1014.45 1014.79
1026.90 1026.57 1026.47 1026.13 1025.87 1025.65 1025.32 1025.03 1024.65 1024.27 1023.62 1023.07 1022.41 1021.62 1020.80 1019.80 1018.97 1017.67 1016.11 1016.03 1016.57 1016.43 1016.95 1018.08 1018.15 1017.57 1016.63 1015.48 1014.68 1013.46 1012.66 1012.19 1011.78 1011.68 1012.07 1012.54 1012.56 1012.83 1012.92 1013.21 1013.46 1013.66 1013.79 1013.83 1013.82 1014.04 1014.45
1027.11 1026.77 1026.58 1026.34 1026.16 1025.96 1025.56 1025.23 1024.83 1024.37 1023.80 1023.20 1022.43 1021.58 1020.74 1019.88 1019.26 1018.63 1017.58 1019.26 1021.37 1021.67 1020.13 1019.05 1018.50 1017.91 1016.95 1016.60 1015.34 1014.04 1013.18 1013.13 1012.89 1012.78 1012.75 1013.04 1012.91 1012.96 1013.12 1013.20 1013.40 1013.58 1013.58 1013.51 1013.61 1013.97 1014.24
1027.32 1027.02 1026.79 1026.60 1026.67 1026.32 1025.81 1025.50 1025.16 1024.56 1023.97 1023.35 1022.53 1021.56 1020.70 1019.80 1019.39 1019.45 1020.13 1021.68 1021.61 1021.45 1020.67 1019.30 1018.54 1017.86 1017.25 1016.71 1015.91 1014.95 1014.50 1013.90 1013.56 1013.30 1013.20 1013.31 1013.05 1013.07 1013.25 1013.32 1013.40 1013.56 1013.50 1013.33 1013.38 1013.78 1014.08
1027.57 1027.20 1027.23 1027.07 1026.91 1026.45 1026.20 1025.84 1025.29 1024.57 1024.01 1023.42 1022.64 1021.77 1020.71 1019.63 1019.78 1020.71 1021.00 1021.67 1021.47 1021.31 1020.88 1020.94 1019.19 1018.76 1017.80 1016.78 1016.21 1015.59 1015.04 1014.71 1013.98 1013.80 1013.53 1013.52 1013.26 1013.15 1013.22 1013.31 1013.48 1013.48 1013.27 1013.03 1013.18 1013.64 1013.59
1027.83 1027.74 1027.61 1027.47 1027.15 1026.77 1026.55 1026.00 1025.42 1024.90 1024.33 1023.52 1022.78 1022.01 1021.32 1020.36 1021.32 1021.66 1021.99 1021.72 1021.39 1021.34 1021.84 1022.06 1020.65 1019.75 1019.05 1018.52 1018.22 1016.07 1015.77 1014.88 1014.73 1014.42 1014.32 1013.96 1013.53 1013.24 1013.22 1013.25 1013.46 1013.59 1013.43 1013.43 1013.54 1013.50 1013.75
1028.30 1028.12 1027.94 1027.72 1027.33 1027.02 1026.59 1026.16 1025.70 1025.05 1024.42 1023.61 1022.91 1022.32 1021.69 1021.55 1022.01 1021.83 1021.77 1021.58 1021.39 1021.34 1023.23 1022.85 1021.99 1021.23 1020.32 1019.55 1018.95 1017.75 1016.85 1015.94 1015.72 1015.16 1014.76 1014.38 1013.73 1013.40 1013.14 1013.35 1013.51 1013.58 1013.70 1014.14 1014.42 1014.39 1014.16
1028.50 1028.38 1028.15 1027.77 1027.53 1027.09 1026.84 1026.46 1025.76 1025.10 1024.50 1023.73 1022.97 1022.43 1022.01 1022.50 1022.84 1021.67 1021.60 1021.58 1022.08 1023.40 1025.22 1024.45 1023.57 1022.80 1022.07 1021.25 1020.20 1019.55 1018.64 1017.95 1017.98 1017.05 1016.13 1015.03 1014.21 1013.85 1013.64 1013.69 1013.81 1013.75 1014.16 1014.88 1014.97 1014.75 1014.61
1028.61 1028.47 1028.29 1028.05 1027.77 1027.38 1026.93 1026.43 1025.86 1025.19 1024.42 1023.62 1022.97 1022.64 1022.60 1022.60 1022.36 1021.74 1021.47 1021.74 1023.61 1026.44 1025.94 1025.36 1024.62 1023.86 1023.35 1022.64 1021.70 1020.94 1020.00 1019.58 1019.38 1018.97 1018.12 1016.90 1015.37 1014.87 1014.44 1014.23 1014.22 1014.51 1014.94 1015.93 1016.14 1015.99 1015.41
1028.72 1028.68 1028.57 1028.34 1028.02 1027.61 1027.15 1026.62 1025.96 1025.24 1024.55 1023.72 1023.06 1022.97 1022.80 1022.35 1021.90 1021.61 1021.79 1024.32 1026.83 1026.82 1026.55 1026.02 1025.22 1024.75 1024.40 1023.91 1023.46 1022.34 1021.58 1020.99 1020.81 1020.53 1020.30 1018.90 1016.98 1015.78 1015.11 1014.64 1014.87 1015.34 1015.97 1016.79 1016.99 1017.47 1016.96
1028.94 1028.97 1028.80 1028.66 1028.24 1027.90 1027.38 1026.80 1026.22 1025.51 1024.66 1023.98 1023.97 1023.82 1023.16 1022.44 1021.89 1021.85 1023.20 1026.71 1027.33 1027.04 1026.69 1026.38 1026.05 1025.85 1025.44 1024.91 1024.19 1023.39 1022.53 1022.16 1021.62 1021.43 1020.89 1020.17 1018.86 1016.62 1015.74 1015.37 1015.49 1015.50 1016.50 1017.60 1018.30 1018.17 1017.45
1029.12 1029.13 1029.06 1028.85 1028.51 1028.19 1027.75 1027.16 1026.46 1025.68 1024.75 1024.14 1024.39 1024.46 1023.37 1022.65 1022.21 1023.23 1026.25 1027.44 1027.50 1027.16 1026.95 1026.79 1026.64 1026.46 1026.39 1026.01 1025.26 1024.34 1023.38 1022.73 1022.16 1021.52 1020.87 1020.23 1019.71 1017.50 1016.58 1016.06 1015.99 1016.55 1017.18 1018.27 1019.21 1019.39 1018.61
1029.34 1029.36 1029.26 1029.12 1028.83 1028.51 1028.04 1027.42 1026.70 1025.93 1024.83 1024.64 1025.48 1025.59 1024.16 1023.21 1024.30 1026.51 1027.70 1027.92 1027.85 1027.65 1027.31 1027.15 1027.10 1027.06 1027.01 1026.67 1025.99 1025.05 1024.22 1023.42 1022.89 1022.47 1021.63 1020.83 1019.89 1018.49 1017.06 1016.60 1016.52 1016.66 1017.18 1017.92 1018.95 1019.66 1019.40
1029.52 1029.55 1029.48 1029.41 1029.12 1028.84 1028.32 1027.75 1026.99 1026.39 1025.79 1026.25 1027.25 1027.09 1025.14 1024.62 1027.10 1028.32 1028.49 1028.42 1028.36 1028.20 1028.05 1027.80 1027.71 1027.66 1027.55 1027.19 1026.64 1025.52 1024.66 1023.60 1023.39 1022.89 1022.11 1021.72 1020.34 1019.03 1017.39 1017.18 1016.94 1016.97 1017.43 1018.00 1018.47 1018.95 1018.96
1029.63 1029.75 1029.61 1029.61 1029.34 1029.14 1028.61 1028.15 1027.41 1026.82 1026.24 1026.65 1028.10 1028.55 1028.05 1027.87 1029.00 1029.00 1029.15 1029.32 1029.06 1028.81 1028.64 1028.43 1028.23 1028.13 1027.97 1027.44 1027.03 1026.11 1025.41 1024.26 1023.80 1023.29 1022.43 1021.97 1020.52 1019.54 1018.63 1017.65 1017.50 1017.24 1017.55 1018.18 1018.47 1018.83 1018.48
1029.64 1029.80 1029.89 1029.80 1029.58 1029.57 1028.95 1028.48 1027.82 1027.05 1026.51 1027.04 1029.17 1030.74 1030.71 1030.58 1030.28 1030.02 1029.71 1030.01 1029.87 1029.56 1029.21 1028.86 1028.74 1029.04 1029.06 1028.26 1027.36 1026.53 1025.83 1025.28 1024.07 1023.46 1022.79 1022.29 1021.26 1019.88 1018.75 1017.84 1017.28 1016.97 1017.06 1017.21 1017.73 1017.78 1017.86
1029.65 1029.88 1030.00 1030.07 1030.19 1029.59 1029.26 1028.90 1028.24 1027.48 1026.98 1028.15 1030.07 1030.77 1031.17 1031.14 1030.81 1030.53 1030.50 1030.71 1030.59 1030.31 1030.01 1029.62 1029.53 1029.29 1029.08 1028.64 1028.04 1027.30 1026.79 1026.43 1025.57 1023.88 1023.57 1023.15 1021.68 1020.17 1018.48 1017.43 1016.54 1016.10 1015.49 1015.59 1016.03 1016.43 1016.03
1029.65 1029.91 1030.26 1030.37 1030.21 1030.06 1029.82 1029.39 1028.81 1027.96 1027.45 1029.33 1030.66 1030.94 1031.05 1031.89 1031.34 1031.08 1031.45 1031.42 1031.12 1030.82 1030.27 1030.10 1030.07 1029.77 1028.66 1028.21 1028.01 1027.04 1026.13 1025.48 1025.22 1024.73 1024.51 1024.28 1022.55 1020.73 1018.69 1017.25 1015.88 1015.19 1014.12 1013.95 1014.21 1014.33 1014.31
1029.63 1030.06 1030.36 1030.53 1030.54 1030.44 1030.28 1030.01 1029.53 1029.15 1029.02 1029.96 1031.27 1031.37 1031.41 1032.21 1031.79 1031.73 1031.87 1031.87 1031.51 1031.37 1031.09 1030.48 1030.26 1029.82 1028.66 1028.13 1027.04 1024.96 1023.93 1023.73 1024.02 1023.93 1024.64 1023.90 1023.21 1021.90 1019.51 1017.44 1015.55 1013.37 1012.88 1012.69 1012.84 1012.58 1013.08
1029.65 1030.06 1030.50 1030.72 1030.82 1030.77 1030.71 1030.56 1030.38 1030.21 1030.07 1030.57 1031.38 1031.57 1032.03 1032.37 1032.41 1032.22 1032.09 1032.02 1031.93 1031.61 1031.21 1030.63 1030.11 1029.65 1029.17 1028.29 1027.09 1024.78 1023.01 1022.68 1022.49 1022.89 1023.22 1023.86 1023.49 1021.99 1020.04 1017.59 1015.03 1012.90 1012.46 1012.38 1012.26 1012.07 1012.04
1029.63 1030.06 1030.51 1030.76 1030.94 1031.14 1031.17 1031.02 1030.98 1030.90 1030.86 1031.23 1031.96 1032.03 1032.28 1032.54 1032.76 1032.43 1032.14 1032.21 1032.13 1031.71 1031.27 1030.83 1030.31 1029.72 1029.28 1028.77 1027.98 1026.61 1025.04 1024.51 1023.41 1022.94 1022.85 1023.56 1023.46 1022.41 1020.09 1017.95 1015.25 1013.10 1012.25 1012.09 1011.93 1011.81 1011.69
1029.55 1030.02 1030.51 1030.82 1031.01 1031.34 1031.48 1031.47 1031.51 1031.39 1031.49 1031.78 1032.45 1032.48 1032.48 1032.79 1032.61 1032.44 1032.18 1032.13 1032.15 1032.04 1031.90 1031.66 1031.08 1030.15 1029.68 1029.07 1028.33 1027.73 1026.62 1025.77 1025.03 1024.38 1024.03 1023.69 1023.29 1022.08 1020.42 1018.08 1015.29 1012.97 1012.13 1011.92 1011.81 1012.14 1011.47
1029.47 1029.96 1030.47 1030.83 1031.13 1031.46 1031.65 1031.73 1031.85 1031.86 1031.86 1032.13 1032.98 1032.90 1032.91 1032.96 1032.52 1032.25 1032.07 1031.99 1032.03 1032.15 1032.11 1031.93 1031.48 1030.82 1030.26 1029.60 1029.21 1028.67 1027.75 1026.77 1026.11 1025.17 1024.41 1023.26 1022.01 1021.16 1019.83 1017.67 1015.22 1013.17 1012.19 1012.23 1012.09 1011.70 1011.68
1029.39 1029.95 1030.39 1030.83 1031.30 1031.55 1031.70 1031.79 1032.08 1032.20 1032.17 1032.21 1032.89 1033.00 1033.08 1033.06 1032.48 1032.00 1031.58 1031.58 1031.60 1031.71 1031.99 1032.04 1031.87 1031.48 1030.92 1030.36 1030.11 1029.42 1028.37 1027.43 1026.51 1025.35 1024.43 1023.17 1022.58 1021.67 1018.76 1016.19 1014.23 1013.23 1012.68 1012.00 1012.00 1012.00 1011.84
Thickness
5596 5601 5603 5607 5612 5617 5622 5626 5629 5634 5636 5641 5647 5653 5660 5665 5672 5678 5684 5691 5699 5705 5709 5710 5712 5716 5722 5717 5717 5727 5731 5735 5737 5737 5729 5725 5719 5712 5704 5699 5697 5693 5682 5676 5671 5669 5664
5590 5596 5597 5602 5605 5610 5615 5620 5624 5629 5633 5636 5644 5649 5655 5662 5670 5678 5685 5694 5700 5706 5708 5708 5708 5709 5712 5705 5717 5720 5724 5728 5726 5726 5721 5719 5712 5710 5697 5688 5688 5675 5674 5668 5663 5659 5656
5584 5590 5592 5597 5600 5604 5610 5614 5619 5624 5630 5633 5639 5645 5654 5662 5670 5677 5684 5690 5698 5702 5703 5703 5704 5703 5701 5702 5711 5714 5717 5718 5718 5718 5712 5713 5711 5703 5689 5678 5673 5670 5666 5662 5658 5655 5650
5580 5585 5587 5592 5595 5600 5605 5609 5615 5620 5626 5630 5636 5644 5651 5658 5666 5675 5682 5687 5693 5695 5697 5697 5696 5697 5695 5705 5705 5704 5709 5712 5715 5713 5709 5706 5705 5691 5681 5671 5666 5662 5658 5654 5650 5646 5637
5576 5580 5583 5588 5593 5597 5601 5605 5610 5615 5621 5625 5631 5639 5645 5654 5661 5672 5679 5686 5687 5690 5691 5690 5690 5689 5685 5699 5691 5695 5693 5694 5701 5705 5702 5700 5693 5673 5668 5660 5652 5644 5649 5638 5642 5637 5633
5573 5576 5580 5584 5590 5593 5596 5601 5604 5610 5617 5621 5627 5634 5641 5649 5655 5667 5679 5682 5681 5685 5682 5683 5680 5677 5676 5667 5674 5682 5687 5689 5689 5691 5686 5681 5668 5659 5652 5652 5643 5642 5635 5628 5627 5631 5624
5568 5573 5576 5581 5585 5589 5592 5596 5600 5604 5611 5616 5622 5629 5636 5643 5649 5658 5672 5670 5664 5670 5660 5646 5644 5644 5650 5660 5665 5674 5680 5679 5680 5675 5660 5656 5654 5644 5646 5639 5634 5628 5623 5621 5626 5623 5618
5563 5567 5572 5576 5580 5583 5587 5591 5596 5600 5605 5610 5617 5624 5631 5637 5641 5645 5652 5637 5617 5616 5639 5632 5633 5634 5640 5641 5648 5660 5669 5660 5656 5647 5650 5645 5635 5640 5636 5633 5627 5621 5617 5619 5620 5611 5608
5557 5562 5567 5570 5571 5576 5581 5585 5588 5594 5599 5604 5610 5618 5625 5632 5634 5634 5626 5612 5610 5610 5623 5628 5630 5630 5632 5635 5638 5643 5647 5645 5643 5639 5637 5629 5635 5631 5626 5622 5618 5613 5609 5611 5613 5601 5597
5551 5557 5559 5562 5565 5571 5574 5577 5582 5589 5593 5598 5604 5610 5619 5627 5624 5615 5613 5605 5606 5606 5619 5606 5615 5616 5621 5628 5628 5633 5637 5634 5635 5629 5630 5624 5626 5621 5616 5611 5608 5599 5607 5607 5602 5594 5594
5544 5548 5551 5555 5560 5564 5566 5571 5576 5581 5585 5591 5597 5602 5607 5614 5605 5601 5597 5598 5601 5601 5601 5592 5596 5603 5604 5606 5605 5621 5625 5627 5620 5620 5619 5613 5612 5610 5605 5603 5597 5595 5589 5588 5586 5583 5579
5537 5541 5544 5548 5553 5557 5561 5565 5568 5573 5578 5584 5589 5593 5597 5600 5594 5594 5593 5595 5596 5608 5577 5576 5580 5581 5586 5591 5595 5602 5606 5614 5611 5609 5608 5605 5610 5606 5603 5594 5587 5584 5579 5571 5564 5565 5566
5530 5534 5537 5542 5546 5551 5553 5556 5563 5568 5572 5578 5584 5587 5590 5585 5582 5590 5592 5593 5597 5565 5558 5559 5559 5567 5570 5573 5579 5580 5583 5585 5577 5581 5583 5594 5595 5593 5590 5580 5576 5574 5567 5551 5554 5556 5564
5524 5527 5531 5535 5539 5543 5547 5551 5556 5562 5567 5574 5579 5581 5581 5579 5581 5587 5589 5591 5559 5531 5541 5550 5551 5555 5557 5560 5564 5564 5570 5567 5566 5563 5559 5562 5573 5572 5572 5569 5566 5559 5559 5538 5536 5546 5557
5518 5521 5523 5527 5531 5535 5539 5544 5550 5555 5562 5568 5573 5574 5575 5577 5582 5584 5586 5540 5524 5535 5538 5537 5544 5544 5544 5545 5542 5550 5552 5554 5548 5545 5537 5539 5556 5561 5561 5564 5562 5553 5547 5547 5540 5532 5537
5511 5513 5516 5519 5524 5527 5533 5538 5543 5548 5556 5561 5562 5563 5566 5572 5578 5577 5564 5528 5532 5530 5532 5532 5530 5533 5529 5531 5533 5534 5539 5540 5537 5532 5532 5527 5529 5551 5557 5560 5558 5558 5553 5537 5527 5536 5539
5503 5506 5508 5511 5517 5520 5524 5529 5535 5542 5551 5556 5554 5556 5561 5566 5570 5561 5527 5526 5525 5528 5525 5525 5522 5521 5518 5515 5517 5521 5530 5531 5528 5527 5530 5528 5523 5546 5550 5549 5546 5545 5538 5526 5524 5516 5530
5496 5498 5501 5504 5509 5512 5517 5523 5529 5535 5545 5549 5539 5541 5551 5558 5545 5520 5518 5516 5518 5516 5516 5516 5515 5512 5504 5502 5503 5510 5513 5517 5516 5515 5514 5518 5518 5527 5546 5547 5548 5548 5543 5533 5537 5527 5512
5488 5491 5494 5497 5501 5504 5510 5516 5523 5528 5533 5531 5522 5519 5539 5543 5518 5506 5509 5508 5507 5504 5502 5502 5501 5499 5496 5494 5491 5501 5503 5509 5503 5504 5508 5503 5513 5524 5542 5542 5542 5543 5540 5534 5520 5527 5530
5481 5483 5488 5490 5494 5497 5503 5507 5514 5519 5524 5522 5512 5508 5510 5509 5497 5501 5499 5494 5494 5492 5493 5490 5492 5490 5485 5487 5488 5488 5486 5496 5491 5492 5497 5498 5510 5519 5526 5534 5535 5535 5536 5531 5528 5532 5534
5474 5477 5479 5482 5486 5488 5494 5498 5505 5512 5517 5513 5493 5482 5482 5477 5489 5485 5486 5481 5477 5477 5479 5481 5481 5469 5462 5466 5474 5474 5477 5474 5480 5483 5490 5491 5494 5514 5524 5533 5536 5538 5542 5534 5520 5529 5534
5467 5469 5471 5473 5474 5481 5486 5490 5496 5502 5507 5497 5483 5483 5472 5472 5472 5477 5473 5467 5464 5463 5465 5468 5464 5458 5455 5453 5459 5453 5453 5448 5456 5473 5473 5480 5494 5512 5524 5532 5539 5540 5550 5554 5551 5544 5547
5460 5461 5461 5464 5467 5471 5475 5480 5485 5493 5498 5482 5471 5468 5469 5460 5466 5468 5458 5455 5453 5453 5458 5457 5451 5446 5453 5455 5447 5448 5451 5451 5452 5455 5459 5458 5484 5507 5523 5535 5540 5539 5548 5563 5560 5560 5564
5452 5452 5453 5455 5457 5461 5464 5468 5473 5476 5480 5473 5461 5460 5460 5454 5459 5453 5446 5441 5444 5442 5439 5443 5441 5437 5450 5444 5446 5460 5464 5457 5451 5452 5451 5464 5476 5485 5514 5528 5536 5567 5570 5572 5571 5577 5572
5443 5444 5444 5446 5448 5451 5453 5456 5459 5461 5463 5460 5453 5453 5447 5443 5442 5440 5436 5434 5432 5432 5433 5434 5435 5437 5431 5435 5442 5467 5486 5486 5482 5464 5461 5459 5468 5486 5511 5525 5549 5571 5572 5572 5574 5581 5581
5435 5436 5436 5438 5440 5441 5442 5445 5446 5448 5449 5448 5442 5440 5436 5432 5432 5430 5430 5423 5421 5424 5426 5424 5424 5422 5424 5420 5424 5441 5455 5458 5474 5473 5468 5460 5466 5479 5507 5517 5537 5565 5574 5574 5576 5574 5584
5428 5428 5428 5429 5431 5432 5432 5434 5434 5436 5436 5436 5430 5429 5427 5422 5422 5422 5420 5418 5415 5412 5406 5402 5406 5412 5411 5414 5421 5419 5426 5444 5450 5454 5457 5466 5464 5474 5492 5515 5542 5567 5573 5573 5571 5575 5585
5420 5420 5420 5421 5422 5422 5423 5424 5424 5424 5425 5425 5419 5418 5415 5411 5413 5414 5413 5410 5405 5398 5395 5393 5396 5398 5398 5405 5407 5407 5414 5428 5430 5447 5449 5473 5494 5493 5501 5516 5535 5564 5574 5570 5576 5580 5584
5412 5411 5412 5412 5412 5413 5414 5415 5414 5413 5414 5414 5411 5409 5404 5402 5406 5407 5407 5403 5398 5393 5387 5382 5381 5379 5382 5387 5387 5394 5408 5418 5428 5436 5446 5471 5464 5477 5512 5535 5553 5560 5568 5576 5577 5580 5585